Wind_Speed
52 53 51 49 51 50 49 48 47 48 49 51 47 48 47 45 47 46 45 45 46 47 47 49 49 51 52 48 42 48 47 44 48 52 54 51 54 52 49 49 50 47 47 46 48 45 43
56 56 56 56 55 55 53 50 47 48 49 46 44 44 45 46 47 46 46 45 46 45 46 50 52 52 50 42 40 41 42 42 47 51 51 53 54 54 53 51 50 46 46 47 47 44 41
63 60 58 59 57 56 55 52 50 49 46 42 41 41 42 46 47 46 44 44 43 45 48 51 52 50 42 39 38 37 39 43 46 50 54 53 55 56 55 52 50 47 42 48 43 40 38
67 67 64 61 58 56 52 51 49 45 42 42 41 42 43 45 46 43 42 43 42 46 48 49 51 49 47 43 41 40 39 41 44 49 51 56 55 57 56 53 51 48 48 48 47 41 38
62 64 62 59 58 55 52 48 46 46 43 43 44 44 45 45 44 42 42 43 44 46 50 49 49 48 49 48 47 45 43 42 44 44 46 55 58 56 56 51 51 50 48 48 44 41 41
56 57 58 56 54 51 48 45 43 46 44 44 44 45 46 43 42 41 41 43 46 47 50 52 53 53 51 52 52 50 48 45 45 47 46 43 56 57 55 54 49 46 44 44 44 44 41
54 52 51 53 52 49 46 45 45 44 45 43 45 45 44 42 42 41 43 47 48 50 52 55 57 59 57 56 55 54 52 49 46 48 49 42 43 55 51 47 46 45 43 44 46 45 43
51 48 46 46 45 44 43 45 44 45 43 42 43 43 44 41 41 42 45 48 50 53 52 56 60 59 59 58 59 60 60 56 51 51 50 47 40 41 50 43 45 44 42 42 42 42 42
45 45 44 43 44 45 44 47 44 43 39 40 41 41 42 41 43 47 49 51 54 56 58 57 55 61 62 64 64 63 60 52 49 51 52 50 43 37 48 49 49 48 40 40 41 41 39
42 45 44 46 44 46 48 45 43 41 38 39 39 39 41 43 45 49 51 53 55 57 60 59 59 59 60 58 54 53 52 48 46 48 51 51 45 41 40 49 39 36 36 37 38 37 36
43 43 48 46 50 49 45 46 43 39 36 37 37 39 42 43 47 50 54 54 56 58 62 62 60 56 53 54 52 46 43 41 42 50 53 49 45 40 35 41 44 41 37 36 36 36 36
44 44 47 51 50 48 46 43 40 34 33 36 37 39 43 46 48 51 53 56 58 60 65 63 58 51 48 50 46 41 34 36 37 46 50 44 44 40 35 37 33 36 32 34 34 34 39
44 44 48 50 47 45 42 39 34 31 33 35 38 41 44 48 51 51 53 57 62 61 66 66 58 51 48 46 39 35 30 29 31 37 46 45 46 43 39 34 38 40 39 36 33 35 33
43 44 51 48 45 42 38 33 31 30 33 35 39 43 46 50 51 52 55 61 63 67 66 66 60 51 47 43 33 30 26 20 26 31 36 43 46 40 38 34 33 32 31 32 33 32 31
44 49 48 43 41 39 33 30 27 30 33 38 40 44 49 49 51 55 59 63 59 54 50 50 42 39 36 33 27 25 23 18 21 27 29 39 39 36 35 33 31 33 31 30 31 32 30
44 47 44 41 36 34 30 26 27 31 34 38 42 46 48 50 54 57 61 56 48 48 46 38 29 25 26 23 22 20 23 20 18 22 26 30 35 34 36 35 34 32 31 30 31 28 28
45 44 41 38 33 29 25 26 28 32 36 39 43 47 49 52 55 59 55 47 46 44 37 31 23 21 18 19 20 18 25 29 17 24 22 23 27 28 31 33 31 33 30 28 25 26 26
43 39 35 32 28 26 24 25 29 33 36 39 43 46 50 53 56 54 47 46 44 42 41 31 24 22 22 23 18 20 24 25 14 25 31 24 23 24 25 27 29 29 27 25 27 28 27
41 33 31 26 27 23 23 27 30 33 36 40 44 46 50 53 52 47 46 46 47 42 35 29 26 22 18 18 18 21 23 32 22 26 29 32 28 25 26 25 24 21 23 25 25 26 25
36 34 33 27 20 23 25 28 30 33 35 40 43 46 49 48 45 44 45 43 28 20 16 12 10 16 18 18 23 27 19 14 32 27 30 31 29 26 21 22 20 21 21 21 23 23 26
40 31 26 23 25 22 24 28 30 31 36 39 41 45 46 42 42 42 34 16 13 14 15 12 7 10 20 26 22 21 16 13 7 37 35 31 29 25 21 19 19 18 20 22 23 25 26
37 31 25 23 21 24 27 28 29 32 35 37 41 42 39 37 38 28 10 12 15 17 15 12 4 8 17 23 20 22 12 15 15 38 42 36 29 23 23 21 19 19 20 22 22 24 23
38 29 24 21 25 26 27 26 28 31 32 35 39 36 33 33 29 8 9 14 15 18 12 5 7 5 10 18 27 26 18 17 16 16 37 37 33 24 22 22 24 20 19 18 20 25 25
34 28 22 27 26 29 25 25 27 30 31 34 35 30 29 25 16 12 5 13 14 17 9 7 6 6 6 16 30 22 10 19 15 14 23 29 26 19 19 17 14 15 14 16 17 22 24
31 25 28 28 32 25 25 25 25 29 29 31 28 25 25 19 3 7 2 6 7 19 17 10 9 9 11 16 14 4 7 14 15 18 16 14 9 8 7 10 12 10 13 16 16 18 20
29 31 31 31 26 24 24 23 24 26 28 27 21 23 20 12 8 9 7 1 3 9 12 11 7 11 10 7 7 4 6 6 7 11 13 13 8 5 5 8 12 13 12 16 18 21 22
36 35 32 29 25 25 21 21 22 23 24 22 18 19 16 7 14 12 9 5 5 2 9 13 7 5 7 8 6 9 6 6 4 3 5 5 3 1 5 9 10 10 11 14 17 18 20
30 33 30 27 27 23 19 19 20 21 21 17 17 17 13 1 19 18 14 4 6 9 10 9 9 10 6 5 7 14 11 8 2 1 0 2 5 9 10 9 8 11 13 14 14 17 17
31 31 32 28 23 18 18 19 19 19 17 16 16 15 10 5 16 22 16 9 3 6 7 8 7 8 8 5 7 11 12 10 8 6 5 6 8 13 12 11 11 12 15 14 15 13 10
Wind_Direction
277 278 281 283 286 289 289 286 285 286 289 290 289 289 287 284 281 280 282 283 283 284 282 281 281 285 287 295 288 287 283 269 259 261 261 257 253 252 247 248 249 248 245 248 247 245 245
275 277 281 284 287 291 292 291 289 287 289 289 286 285 281 278 278 283 284 282 282 283 285 287 293 298 299 293 286 280 276 270 260 256 258 255 247 247 247 244 246 248 246 246 244 243 245
279 281 281 285 289 292 292 290 289 288 288 286 279 278 281 285 287 288 287 285 289 292 296 296 297 297 296 289 284 277 267 263 263 259 259 253 245 237 240 242 240 242 245 245 246 240 241
277 277 281 283 285 289 290 289 286 286 286 284 288 286 284 284 287 288 290 291 294 295 296 296 295 294 291 283 279 277 273 268 264 262 262 257 248 245 234 239 239 237 239 239 238 242 242
272 275 278 280 282 283 285 284 285 287 286 285 285 284 285 287 287 287 289 292 294 295 295 292 291 289 286 284 280 276 275 270 268 268 263 261 252 244 239 235 237 235 235 238 241 240 241
273 273 274 277 278 279 279 279 280 283 282 282 282 285 285 287 286 288 292 293 293 293 293 292 291 290 287 285 282 280 276 272 269 270 268 267 257 246 237 231 236 240 238 238 238 239 237
273 269 274 275 272 273 273 277 277 279 279 280 281 283 284 284 285 287 290 291 293 291 294 294 295 291 290 288 287 283 276 271 271 268 268 266 265 253 237 238 240 243 237 236 235 237 237
271 267 264 267 267 270 272 272 273 273 275 277 281 284 284 285 286 288 288 291 293 292 288 297 293 291 291 288 287 284 282 277 267 265 263 263 267 261 231 230 235 238 236 237 238 241 240
263 260 259 265 270 268 268 269 269 269 271 275 280 283 284 286 290 291 292 294 295 295 295 296 293 295 295 292 287 282 280 277 266 255 258 259 256 260 239 227 231 232 233 238 243 244 242
255 256 256 262 267 267 266 266 266 266 271 277 280 283 288 292 294 294 296 297 299 299 298 297 297 298 298 292 288 287 281 271 257 247 244 249 250 251 249 233 230 236 240 239 243 246 245
254 253 257 262 259 261 263 264 263 265 271 277 282 287 292 295 297 298 298 300 301 302 304 303 304 302 295 292 293 289 280 267 248 237 234 239 240 245 241 232 225 230 226 236 241 245 244
255 256 257 258 257 260 261 260 261 266 274 281 287 293 295 296 297 300 301 302 304 307 307 305 303 298 292 295 297 284 275 261 247 237 230 225 228 233 235 227 220 230 232 235 239 243 241
249 253 257 255 255 257 257 259 263 273 280 286 290 294 297 298 300 303 305 307 310 308 307 301 296 288 288 289 283 278 279 257 246 235 229 220 224 225 229 225 222 227 231 238 239 240 245
248 253 249 253 256 254 256 260 269 277 283 289 292 296 299 301 305 306 309 311 311 309 305 298 287 279 281 284 271 274 275 240 239 235 225 221 224 222 227 222 229 230 231 231 237 245 246
246 246 244 250 251 253 256 263 271 280 287 292 296 298 301 306 307 310 312 314 315 312 314 313 293 280 270 263 255 273 258 229 233 231 222 225 221 217 223 225 223 227 228 229 235 243 245
246 242 243 245 247 252 258 266 276 283 288 294 299 302 307 308 311 314 318 318 311 308 311 321 312 284 261 250 256 269 218 216 218 211 210 219 220 218 220 227 222 229 229 231 235 241 245
242 239 241 244 244 250 259 269 278 285 292 296 300 307 309 312 316 320 320 316 310 308 309 308 307 296 266 250 259 248 200 206 190 202 186 203 209 215 220 220 226 227 232 233 236 238 240
242 233 235 238 240 247 258 271 280 288 294 299 305 309 312 317 322 323 319 315 311 304 299 291 283 274 267 262 245 223 203 207 172 186 186 168 193 208 211 213 219 224 226 230 234 237 242
230 225 228 230 238 250 264 272 284 291 298 305 307 311 317 324 324 323 319 315 310 302 292 281 265 259 252 245 220 205 186 201 198 195 192 196 198 201 205 211 215 220 228 236 238 243 247
226 224 223 227 242 255 265 278 287 293 302 306 310 316 323 326 323 324 322 320 320 323 318 313 272 246 227 217 208 205 170 180 209 192 199 197 206 205 211 218 220 222 230 237 243 246 246
229 221 218 227 241 257 272 283 290 300 305 310 315 322 326 326 328 327 332 347 16 5 346 323 294 226 202 195 204 196 201 104 111 191 198 201 201 197 204 211 215 219 230 241 249 251 253
222 213 221 233 251 265 271 282 295 301 307 314 320 326 326 328 332 341 41 32 7 352 335 331 282 210 192 190 175 160 139 98 125 166 199 205 202 204 203 209 223 230 239 247 251 257 263
215 219 223 241 253 264 272 283 293 302 311 317 323 327 328 333 340 22 57 17 353 358 334 359 110 127 171 193 160 162 96 101 123 112 163 185 186 192 209 216 222 224 234 246 255 261 265
217 217 231 243 253 260 274 286 295 305 312 320 325 325 330 337 343 127 81 28 20 10 39 104 76 89 149 180 151 135 97 93 117 103 125 157 179 177 185 188 202 225 238 244 258 263 269
215 224 236 246 254 260 275 285 297 305 314 320 325 323 332 339 32 164 311 346 44 53 42 62 76 94 120 185 198 165 150 118 102 85 89 116 135 159 186 216 234 257 255 255 261 270 267
218 228 234 245 253 262 272 282 296 305 313 319 320 324 331 340 172 183 106 57 350 49 57 69 77 77 94 139 193 149 132 96 85 89 86 102 114 146 199 236 253 257 262 256 256 259 260
223 232 234 245 251 257 268 283 295 303 310 315 317 324 324 342 183 163 143 171 38 78 10 10 41 103 87 122 159 186 175 114 69 62 81 72 62 340 262 259 261 276 258 241 242 241 248
228 232 237 239 246 254 266 280 291 303 306 306 313 323 315 226 189 191 196 144 61 49 53 34 50 65 56 130 162 169 166 190 170 198 257 331 331 320 302 283 274 260 250 234 231 230 241
231 231 232 240 242 249 263 278 289 299 298 295 308 319 303 280 195 195 204 219 310 16 32 53 34 29 34 95 146 164 166 175 188 218 224 245 268 287 289 283 259 242 228 220 212 228 240
Height
5749 5748 5747 5746 5746 5745 5744 5742 5741 5740 5737 5736 5733 5733 5731 5729 5727 5723 5721 5722 5721 5719 5717 5715 5713 5711 5709 5708 5706 5705 5706 5707 5708 5709 5710 5712 5715 5715 5716 5719 5721 5724 5727 5729 5731 5733 5736
5736 5736 5735 5734 5732 5731 5731 5730 5729 5727 5725 5723 5723 5722 5721 5718 5715 5712 5711 5709 5709 5706 5705 5703 5701 5700 5698 5697 5693 5693 5692 5692 5694 5695 5696 5696 5697 5701 5703 5706 5709 5713 5716 5718 5721 5724 5727
5722 5722 5722 5722 5721 5720 5719 5718 5717 5716 5714 5712 5711 5709 5709 5708 5706 5703 5700 5700 5697 5695 5693 5692 5690 5689 5689 5686 5682 5681 5681 5680 5678 5681 5681 5682 5681 5684 5690 5693 5697 5700 5705 5708 5712 5715 5717
5709 5709 5708 5707 5707 5707 5706 5706 5707 5703 5701 5701 5697 5698 5698 5698 5696 5694 5691 5691 5688 5687 5684 5682 5679 5678 5677 5675 5674 5672 5670 5668 5668 5667 5668 5667 5668 5672 5675 5681 5686 5689 5693 5698 5701 5704 5708
5697 5697 5696 5695 5695 5695 5694 5694 5693 5693 5691 5689 5688 5689 5689 5688 5687 5684 5682 5681 5679 5677 5675 5672 5671 5667 5666 5665 5663 5661 5660 5658 5657 5656 5655 5654 5656 5659 5663 5668 5674 5678 5682 5687 5691 5694 5697
5683 5684 5684 5684 5684 5683 5684 5683 5682 5683 5681 5679 5678 5678 5678 5677 5677 5676 5673 5671 5669 5668 5664 5660 5658 5657 5655 5652 5651 5651 5649 5647 5645 5644 5644 5645 5644 5648 5651 5654 5663 5668 5672 5675 5680 5684 5688
5670 5670 5671 5671 5672 5671 5671 5673 5673 5672 5671 5669 5668 5668 5668 5667 5666 5665 5664 5661 5660 5659 5653 5648 5645 5642 5639 5638 5637 5636 5633 5634 5634 5633 5632 5632 5632 5637 5642 5647 5651 5655 5660 5664 5668 5673 5678
5658 5658 5660 5660 5661 5661 5662 5662 5662 5662 5661 5660 5660 5659 5659 5657 5656 5654 5652 5649 5647 5645 5647 5634 5631 5627 5624 5623 5622 5618 5616 5619 5620 5622 5619 5622 5627 5630 5628 5634 5640 5646 5651 5657 5660 5664 5668
5645 5647 5649 5650 5651 5652 5652 5652 5652 5652 5650 5650 5650 5650 5649 5646 5644 5642 5640 5638 5634 5631 5628 5624 5622 5612 5610 5608 5603 5600 5598 5599 5604 5607 5610 5611 5615 5616 5618 5622 5627 5634 5640 5646 5651 5654 5660
5633 5636 5638 5639 5641 5642 5642 5643 5643 5643 5642 5641 5641 5640 5638 5637 5635 5630 5628 5625 5621 5616 5611 5609 5608 5603 5596 5589 5588 5582 5579 5583 5585 5592 5596 5597 5604 5608 5608 5614 5620 5626 5633 5638 5642 5647 5652
5622 5624 5627 5629 5630 5630 5632 5633 5633 5633 5632 5632 5631 5631 5629 5626 5624 5621 5616 5612 5608 5602 5593 5591 5590 5587 5580 5575 5571 5570 5565 5566 5569 5574 5578 5589 5593 5598 5600 5607 5611 5618 5623 5630 5635 5638 5642
5612 5614 5615 5617 5619 5620 5621 5623 5624 5623 5622 5623 5622 5621 5619 5617 5614 5610 5604 5599 5594 5588 5579 5574 5572 5570 5567 5561 5559 5554 5555 5554 5556 5560 5567 5574 5581 5587 5592 5598 5604 5608 5618 5623 5627 5631 5632
5600 5601 5605 5607 5609 5611 5614 5615 5615 5615 5615 5613 5613 5612 5610 5607 5605 5599 5593 5586 5578 5574 5563 5557 5557 5553 5551 5549 5548 5545 5546 5546 5547 5549 5556 5565 5569 5577 5583 5590 5597 5602 5609 5614 5619 5621 5626
5588 5591 5595 5597 5600 5602 5604 5606 5608 5608 5607 5604 5604 5602 5600 5597 5593 5588 5580 5572 5564 5555 5547 5538 5535 5537 5535 5534 5536 5537 5537 5539 5540 5542 5548 5555 5562 5570 5577 5583 5591 5597 5602 5608 5611 5614 5618
5579 5582 5585 5587 5590 5593 5595 5598 5600 5600 5598 5597 5595 5592 5590 5586 5581 5575 5567 5558 5548 5538 5532 5523 5518 5518 5521 5522 5526 5528 5529 5534 5535 5537 5544 5549 5556 5565 5571 5576 5584 5589 5595 5600 5604 5607 5611
5570 5572 5576 5579 5582 5585 5589 5591 5592 5592 5590 5589 5587 5583 5580 5575 5568 5561 5552 5543 5534 5528 5522 5514 5509 5508 5510 5514 5517 5519 5525 5530 5529 5534 5538 5544 5551 5559 5565 5571 5577 5583 5588 5594 5597 5601 5604
5559 5563 5567 5571 5573 5578 5582 5584 5585 5584 5582 5580 5578 5574 5569 5562 5555 5547 5537 5530 5523 5517 5514 5510 5506 5505 5506 5509 5511 5513 5522 5521 5526 5530 5537 5542 5550 5556 5560 5566 5572 5577 5581 5586 5591 5595 5598
5549 5554 5559 5563 5567 5570 5574 5577 5578 5576 5574 5571 5569 5564 5557 5550 5543 5533 5525 5520 5515 5506 5502 5501 5500 5501 5502 5502 5505 5508 5514 5515 5519 5526 5534 5542 5546 5551 5557 5561 5565 5570 5576 5580 5585 5588 5592
5543 5546 5551 5556 5560 5564 5568 5570 5570 5568 5566 5564 5560 5554 5547 5539 5530 5522 5514 5508 5502 5493 5488 5487 5490 5491 5495 5497 5500 5504 5511 5516 5518 5523 5529 5538 5543 5547 5551 5557 5561 5566 5571 5576 5579 5582 5586
5535 5539 5544 5549 5554 5559 5562 5563 5562 5561 5559 5556 5551 5545 5536 5529 5521 5514 5506 5497 5489 5483 5480 5480 5481 5482 5488 5493 5496 5505 5510 5517 5517 5520 5526 5531 5537 5544 5550 5553 5558 5563 5567 5570 5574 5578 5579
5526 5533 5538 5543 5548 5552 5555 5556 5556 5554 5552 5549 5543 5536 5529 5521 5513 5506 5499 5493 5489 5485 5482 5479 5478 5479 5482 5488 5494 5502 5510 5510 5510 5513 5521 5528 5533 5539 5545 5550 5554 5558 5561 5565 5568 5570 5573
5521 5527 5532 5537 5542 5545 5548 5548 5549 5547 5544 5540 5535 5529 5521 5515 5508 5502 5497 5494 5491 5486 5481 5479 5477 5478 5482 5486 5494 5502 5506 5504 5505 5507 5517 5524 5531 5537 5542 5548 5552 5555 5557 5560 5563 5565 5568
5515 5520 5526 5531 5536 5539 5541 5543 5543 5541 5537 5532 5528 5523 5516 5510 5504 5501 5499 5496 5492 5485 5482 5479 5479 5480 5483 5487 5494 5501 5503 5504 5506 5509 5512 5522 5528 5536 5541 5545 5549 5554 5555 5557 5558 5559 5562
5508 5513 5520 5525 5529 5532 5534 5536 5535 5533 5530 5525 5522 5517 5512 5506 5504 5502 5500 5498 5494 5488 5484 5483 5483 5483 5487 5489 5495 5501 5502 5504 5509 5511 5514 5521 5528 5533 5537 5542 5547 5550 5551 5552 5554 5555 5558
5501 5508 5514 5519 5522 5525 5528 5529 5529 5527 5522 5520 5516 5513 5507 5504 5503 5503 5502 5500 5497 5493 5490 5488 5487 5488 5490 5494 5498 5503 5506 5508 5512 5515 5517 5521 5526 5531 5537 5540 5543 5545 5547 5549 5551 5552 5552
5496 5502 5507 5511 5516 5519 5520 5522 5522 5520 5517 5514 5511 5508 5504 5502 5502 5502 5503 5501 5499 5497 5495 5493 5493 5493 5495 5497 5500 5504 5508 5510 5514 5517 5519 5522 5527 5533 5536 5537 5540 5542 5544 5545 5547 5548 5548
5489 5495 5500 5505 5509 5511 5514 5515 5515 5515 5511 5509 5507 5504 5500 5499 5501 5502 5503 5502 5501 5499 5497 5497 5496 5497 5497 5500 5503 5506 5509 5512 5515 5518 5520 5523 5527 5530 5533 5535 5537 5538 5539 5541 5543 5547 5543
5482 5488 5494 5498 5502 5505 5507 5509 5509 5509 5506 5505 5503 5500 5498 5497 5498 5500 5502 5502 5503 5502 5501 5501 5501 5500 5500 5501 5504 5506 5510 5513 5516 5519 5520 5522 5525 5529 5531 5532 5535 5535 5537 5539 5540 5539 5540
5476 5482 5487 5491 5495 5499 5502 5503 5503 5503 5501 5501 5499 5496 5495 5494 5497 5499 5501 5502 5503 5503 5503 5502 5502 5501 5502 5503 5505 5506 5509 5513 5516 5519 5521 5525 5527 5528 5531 5531 5532 5533 5534 5535 5536 5536 5537